Regional Weather Roundup
Issued by NWS

Home | Current Version | Previous Version | Text Only | Print | Product List | Glossary Off
Versions: 1 2 3 4 5 6 7 8 9 10 11 12 13 14 15 16 17 18 19 20 21 22 23 24 25 26 27 28 29 30 31 32 33 34 35 36 37 38 39 40 41 42 43 44 45 46 47 48 49 50

623
ASUS43 KDMX 300808
RWRIA

WEATHER ROUNDUP FOR IOWA
NATIONAL WEATHER SERVICE DES MOINES IA
300 AM CDT MON MAY 30 2016

NOTE: "FAIR" INDICATES FEW OR NO CLOUDS BELOW 12,000 FEET WITH NO
SIGNIFICANT WEATHER AND/OR OBSTRUCTIONS TO VISIBILITY.

* - THESE STATIONS ARE NOT NWS STATIONS...THUS NOT UNDER NWS
QUALITY CONTROL.  THEY ALSO DO NOT REPORT WEATHER SUCH
AS PRECIPITATION OR FOG.

IAZ001>003-012>014-020>022-031>034-043>046-300900-
   NORTHWEST IOWA

CITY           SKY/WX    TMP DP  RH WIND       PRES   REMARKS
CARROLL *      PTCLDY    64  57  77 CALM      30.01F
CHEROKEE *     CLOUDY    59  59 100 CALM      30.01S
DENISON *      CLEAR     66  55  68 CALM      29.99S
LE MARS *      CLOUDY    66  54  63 SE7       29.99F
ORANGE CITY *  MOCLDY    64  54  68 CALM      29.99F
SHELDON *      PTCLDY    61  54  77 SE7       29.98F
SIOUX CITY     CLOUDY    63  57  81 S3        30.00R
SPENCER        CLOUDY    57  53  86 CALM      30.01F
STORM LAKE *   PTCLDY    63  50  63 SE8       30.02S
$$

IAZ055>058-069>071-079>083-090>094-300900-
   SOUTHWEST IOWA

CITY           SKY/WX    TMP DP  RH WIND       PRES   REMARKS
ATLANTIC *     CLEAR     64  63  94 CALM      29.99F
AUDUBON *      CLEAR     63  57  82 CALM      30.02F
CLARINDA *       N/A     64  63  94 MISG      30.02F
COUNCIL BLFS * CLEAR     68  61  77 SW7       29.99F
CRESTON *      CLEAR     68  59  73 SW5       30.03F
HARLAN  *      CLEAR     64  61  88 CALM      30.03S
LAMONI         CLOUDY    65  61  87 S7        30.01F
RED OAK *      CLEAR     66  63  88 S5        30.00F
SHENANDOAH *   CLEAR     68  64  88 CALM      30.00F
$$

IAZ047>049-059>061-072>074-084-300900-
   CENTRAL IOWA

CITY           SKY/WX    TMP DP  RH WIND       PRES   REMARKS
AMES           CLOUDY    62  58  86 CALM      30.01F
ANKENY *       CLEAR     61  59  94 CALM      30.01S
BOONE *        MOCLDY    66  57  72 E3        30.01S
CHARITON *     CLEAR     68  61  77 SW6       30.01F
DES MOINES     CLOUDY    70  59  68 CALM      30.00S
GRINNELL*      PTCLDY    64  57  77 CALM      30.02F
KNOXVILLE *    CLOUDY    70  63  78 SW5       29.99F
MARSHALLTOWN   CLOUDY    61  58  90 CALM      30.01S
NEWTON *       CLOUDY    66  61  82 CALM      30.01S
PELLA *        RAIN      66  61  82 SW16      30.01F
PERRY *          N/A     68  59  73 NE3       30.01S
$$

IAZ004>006-015-016-023>025-035-036-300900-
   NORTH CENTRAL IOWA

CITY           SKY/WX    TMP DP  RH WIND       PRES   REMARKS
ALGONA *       CLEAR     61  52  72 N5        30.02F
CLARION *      CLEAR     59  54  82 SE5       30.02S
ESTHERVILLE    CLOUDY    55  52  89 CALM      30.01F
FORT DODGE *   CLOUDY    57  52  82 CALM      30.02S
MASON CITY     CLEAR     56  51  84 W6        30.04S
FOREST CITY *  CLEAR     52  52 100 CALM      30.03S FOG
WEBSTER CITY * PTCLDY    61  57  88 SE6       30.00S
IOWA FALLS *     N/A     63  55  77 CALM      30.03S
$$

IAZ007>011-017>019-026>030-037>042-050>054-066-300900-
   NORTHEAST IOWA

CITY           SKY/WX    TMP DP  RH WIND       PRES   REMARKS
CEDAR RAPIDS   CLOUDY    62  59  90 NW5       30.00F
CHARLES CITY * CLEAR     59  55  88 NW5       30.03S
CLINTON *      PTCLDY    65  58  78 N3        30.02R
DECORAH *      PTCLDY    61  59  94 CALM      30.00F
DUBUQUE        PTCLDY    61  58  90 CALM      30.01S
MONTICELLO *   CLEAR     61  59  94 CALM      30.00S
OELWEIN *      CLEAR     64  59  82 NW5       30.02S
WATERLOO       FOG       58  57  97 CALM      30.00S VSB 1/2
$$

IAZ064-065-067-068-078-300900-
   EAST CENTRAL IOWA

CITY           SKY/WX    TMP DP  RH WIND       PRES   REMARKS
DAVENPORT      CLOUDY    66  57  72 SW5       30.01S
IOWA CITY      CLOUDY    65  58  78 CALM      30.02S
MT. PLEASANT * PTCLDY    64  64 100 S6        30.03S
MUSCATINE *    CLEAR     68  59  73 CALM      30.01F
QUAD CITIES    PTCLDY    67  57  70 CALM      30.01R
$$

IAZ062-063-075>077-085>089-095>099-300900-
   SOUTHEAST IOWA

CITY           SKY/WX    TMP DP  RH WIND       PRES   REMARKS
BURLINGTON     CLOUDY    65  61  87 S3        30.02S
FAIRFIELD *      N/A    N/A N/A N/A MISG        N/A
FORT MADISON * PTCLDY    68  63  83 S6        30.03F
KEOKUK *       PTCLDY    66  63  88 CALM      30.02F
OSKALOOSA *    MOCLDY    66  61  82 SW6       30.01F
OTTUMWA        MOCLDY    67  62  84 S8        30.01S
WASHINGTON *   CLEAR     63 N/A N/A SW5       30.02F
$$

ABBREVIATIONS USED IN REMARKS
   TC - TEMPERATURES IN CELSIUS
  WCI - WIND CHILL INDEX
   HX - HEAT INDEX
  VSB - VISIBILITY
$$





USA.gov is the U.S. government's official web portal to all federal, state and local government web resources and services.